Location: ???????????
(55.5758°N, 38.4970°E)
Time: 21:30:08
(UTC+00:00)

Cosmos 1484 Rocket - Pass Details

Date: 15 November 2025
Orbit: 442 x 473 km, 97.6° (Epoch: 12 December)

Event Time Altitude Azimuth Distance (km) Brightness Sun altitude
Rises 02:43:31 0° 21° (NNE) 2,551 6.4 -19.0°
Reaches altitude 10° 02:45:45 10° 31° (NNE) 1,664 5.6 -18.7°
Maximum altitude 02:49:00 32° 97° (E) 842 4.5 -18.2°
Drops below altitude 10° 02:52:13 10° 162° (SSE) 1,641 5.6 -17.8°
Sets 02:54:24 0° 172° (S) 2,508 6.4 -17.5°
